Location: Béaulencourt
(50.0796°N, 2.8795°E)
Time: 23:01:10
(UTC+00:00)

COBE Rocket - Pass Details

Date: 20 January 2026
Orbit: 675 x 772 km, 97.1° (Epoch: 7 February)

Event Time Altitude Azimuth Distance (km) Brightness Sun altitude
Rises 06:32:40 0° 156° (SSE) 3,165 7.9 -10.2°
Reaches altitude 10° 06:34:56 10° 154° (SSE) 2,260 7.1 -9.8°
Maximum altitude 06:39:52 65° 73° (ENE) 834 4.4 -9.1°
Drops below altitude 10° 06:44:57 10° 352° (N) 2,320 6.2 -8.3°
Sets 06:47:18 0° 350° (N) 3,257 6.9 -8.0°
